Temperature
25 22 21 22 23 24 25 25 25 26 28 27 26 25 25 25 25 23 22 22 21 21 22 21 21 21 20 20 19 19 19 19 18 18 18 18 18 18 18 18 18 18 17 17
23 22 23 24 25 25 25 25 25 26 27 27 25 25 24 24 24 24 23 22 22 21 21 21 21 21 20 20 19 19 19 19 18 18 18 18 18 18 18 18 18 17 17 17
22 23 25 26 25 26 25 25 26 26 27 26 25 24 23 24 24 23 23 22 22 22 21 21 21 21 20 20 19 19 19 19 18 18 18 17 17 17 17 17 17 17 17 17
23 25 26 26 26 26 25 27 27 27 25 23 24 22 23 22 22 22 22 22 22 22 22 21 21 21 20 20 19 19 19 18 18 18 18 18 17 17 18 18 17 17 17 17
23 25 25 26 26 27 26 27 27 27 24 22 22 22 21 21 22 22 21 22 22 22 22 22 21 21 20 20 19 19 18 18 18 18 18 18 18 18 18 17 17 17 17 17
24 26 26 26 28 28 28 27 25 22 20 21 22 22 21 20 21 21 21 21 22 22 22 21 21 20 20 19 19 18 18 18 18 17 17 18 18 17 17 17 17 17 17 17
24 25 26 27 26 27 27 23 21 22 20 20 21 21 20 21 22 22 21 21 22 22 21 21 20 20 20 19 19 18 18 18 17 17 17 17 17 18 18 17 17 17 17 17
22 23 26 27 26 25 25 22 21 22 21 20 21 21 21 22 22 22 22 22 21 21 21 21 21 20 20 19 19 18 18 18 17 17 17 17 17 17 17 17 17 17 17 17
22 23 26 28 28 27 26 23 22 20 21 20 20 21 21 22 21 21 22 21 21 21 21 20 20 20 20 19 19 18 18 18 18 18 17 17 17 17 17 17 17 17 17 17
22 23 25 27 28 27 26 24 20 20 21 20 21 21 20 21 21 21 20 20 20 20 20 20 20 20 19 19 19 18 18 18 18 18 17 17 17 17 17 17 17 17 17 17
22 22 24 25 25 25 25 24 21 19 19 20 20 20 22 21 21 20 20 20 21 20 20 20 20 20 19 19 18 18 18 18 18 17 17 17 17 17 17 17 17 17 17 17
22 20 21 23 25 25 24 23 21 20 20 19 19 20 22 21 20 20 20 20 20 20 20 20 20 19 19 18 18 18 18 18 18 17 17 17 17 17 17 17 17 17 17 17
22 20 21 22 22 23 23 23 22 19 19 19 19 21 21 20 20 20 20 19 19 19 19 19 19 19 18 18 18 18 18 18 17 17 17 17 17 17 17 17 17 17 17 17
22 19 20 21 21 22 23 23 23 20 19 20 20 21 20 19 19 19 19 19 19 19 19 19 19 18 18 18 18 18 18 18 17 17 17 17 17 17 17 17 17 17 17 16
20 20 21 21 23 23 23 23 23 22 21 20 21 21 20 19 19 19 19 19 19 19 18 18 18 18 18 18 18 18 17 17 17 17 17 17 17 17 17 17 17 17 17 16
18 20 20 21 22 23 23 23 23 23 22 21 21 20 19 19 19 19 18 18 18 18 18 18 18 18 18 17 18 18 17 17 17 17 17 17 17 17 17 17 16 16 16 16
18 18 18 19 21 22 21 21 22 21 21 21 20 19 18 18 18 17 18 18 17 18 18 18 18 18 18 18 18 18 17 17 17 17 17 17 17 17 16 16 16 16 16 16
18 17 16 17 19 20 20 20 21 20 19 19 18 18 17 17 17 17 17 17 17 17 18 18 18 18 18 18 17 17 17 17 17 16 16 16 16 16 16 16 16 16 16 16
17 17 16 16 18 19 20 20 20 19 17 17 17 17 17 17 17 16 17 17 17 17 18 18 17 17 17 17 17 17 16 16 16 16 16 16 16 16 16 16 16 16 15 15
16 16 16 16 18 18 18 19 20 18 16 17 16 16 16 16 15 15 16 17 17 17 17 17 17 17 17 16 16 16 16 16 16 16 16 16 16 16 16 15 15 15 15 15
16 16 16 16 17 17 17 18 19 18 16 16 16 16 16 15 15 15 15 16 16 16 16 16 16 16 16 16 16 16 16 16 15 15 15 15 15 15 15 15 15 15 15 14
15 15 15 15 16 16 16 16 15 14 15 15 15 15 15 14 14 14 15 15 15 15 16 16 16 15 15 16 16 16 15 15 15 15 15 15 15 15 15 15 14 14 14 14
14 14 14 14 14 14 14 14 14 14 14 14 14 15 14 14 14 14 14 14 14 14 14 15 15 15 14 15 15 15 15 15 15 15 15 15 15 14 14 14 14 14 13 13
14 14 13 13 13 13 13 13 14 14 14 14 14 14 14 13 13 13 13 13 13 13 13 13 14 14 14 14 14 14 14 15 15 14 14 14 14 14 14 14 13 13 13 13
13 13 13 12 12 12 12 12 13 13 13 13 13 13 13 13 13 13 13 13 12 12 12 13 13 13 13 13 13 13 14 14 14 14 13 13 13 13 13 13 12 12 12 12
12 12 12 12 12 11 11 12 12 12 12 12 12 12 12 12 12 12 12 12 12 12 11 12 12 12 12 12 12 12 13 13 13 13 13 13 12 12 12 12 11 11 11 11
Wind_Speed
4 3 6 9 9 9 8 10 13 13 8 1 2 4 6 6 6 9 9 10 10 10 10 11 12 12 11 11 13 13 13 12 11 8 7 6 6 7 6 5 9 11 11 11
3 8 13 10 10 10 12 12 12 10 5 1 3 3 3 4 5 8 11 11 11 9 8 10 11 12 12 12 12 12 13 13 12 10 8 5 5 5 6 5 7 10 10 11
10 9 8 11 12 12 13 10 9 7 3 4 3 2 2 1 2 5 7 8 10 13 14 13 13 12 12 12 13 13 12 12 11 10 7 6 4 4 4 5 6 7 10 10
9 13 13 11 13 12 12 12 8 4 1 3 1 1 4 2 1 3 6 8 8 10 11 11 12 12 12 11 10 11 12 12 11 11 11 11 8 7 6 6 6 6 8 9
8 7 10 13 16 12 11 11 6 1 2 2 5 2 6 3 1 3 4 6 8 9 11 12 12 12 10 10 10 9 10 11 11 12 12 11 8 6 5 6 7 7 6 7
11 10 7 12 14 11 8 3 6 6 6 3 4 1 5 4 5 4 2 3 6 9 9 10 10 9 8 9 9 9 10 10 11 12 12 12 11 10 9 8 9 8 5 5
9 12 10 9 9 9 2 4 4 5 5 4 4 1 6 7 4 4 4 4 5 8 9 10 11 11 10 10 10 10 11 10 11 12 12 12 12 12 12 10 10 9 6 5
6 9 8 6 9 8 5 10 8 5 5 4 3 3 6 5 2 3 4 5 6 7 7 10 11 11 11 11 10 10 11 10 11 12 12 11 11 9 8 9 9 9 8 7
7 7 7 6 6 10 6 6 10 8 3 1 3 4 6 2 2 3 3 5 6 7 7 8 8 9 9 10 10 11 11 10 10 11 11 11 11 10 10 9 8 7 7 7
10 6 8 6 0 2 8 7 7 6 4 2 2 3 4 4 4 2 2 3 4 6 7 7 7 7 8 8 7 8 9 10 9 10 10 10 10 10 10 9 9 9 8 8
9 7 6 4 1 2 2 3 5 5 6 6 3 5 6 9 9 8 7 6 8 8 8 7 6 6 6 7 7 7 7 7 8 9 9 8 9 9 9 9 9 9 8 8
7 7 4 4 3 2 5 4 6 5 3 5 5 6 5 6 6 7 6 6 6 7 7 6 6 6 5 5 6 6 7 7 7 8 8 8 8 8 8 8 8 8 8 8
6 7 2 5 7 6 4 3 4 6 4 3 4 5 2 3 4 6 7 7 8 7 6 5 5 6 6 6 6 5 6 7 7 7 7 7 8 8 8 8 8 8 8 7
6 6 7 7 5 3 1 1 3 5 3 2 5 5 2 3 5 6 7 8 8 7 6 5 5 5 6 6 6 5 5 6 7 7 7 7 8 8 7 7 7 7 8 7
6 5 4 3 2 2 1 1 2 2 4 5 5 3 6 6 7 8 8 9 9 7 6 6 6 5 5 6 6 6 5 5 6 7 7 7 7 7 7 7 6 6 7 7
5 5 4 4 5 4 3 3 2 1 1 3 3 1 1 4 6 6 6 8 8 8 7 6 6 6 6 6 7 7 6 6 6 7 6 6 6 6 6 6 6 6 5 5
4 5 4 2 3 5 3 3 2 3 3 2 3 3 4 7 7 5 4 6 6 6 6 6 6 7 7 7 7 7 7 7 7 6 5 6 6 6 6 6 6 6 5 5
6 5 4 2 5 1 5 2 7 9 8 6 4 4 7 9 6 5 5 5 6 6 6 5 5 5 5 5 6 6 7 8 7 6 5 5 6 6 6 6 5 5 5 5
6 7 5 4 2 3 3 4 3 4 4 5 5 6 6 7 7 6 4 4 5 5 6 5 5 5 5 6 6 7 6 7 7 6 6 6 6 7 7 6 6 5 6 6
6 7 6 4 3 3 4 6 4 5 2 4 4 4 4 3 3 1 2 4 5 5 5 6 6 6 5 4 6 8 7 7 6 5 5 5 6 7 7 7 6 6 6 6
4 4 4 4 3 2 4 8 5 3 4 2 1 3 3 2 3 4 4 6 6 6 7 8 8 7 5 4 7 8 7 6 5 6 6 6 6 6 7 7 6 7 7 8
3 3 2 3 3 4 6 5 3 2 1 1 1 3 6 7 7 7 8 8 8 8 8 9 9 8 6 5 6 8 6 5 6 7 8 7 7 7 7 8 8 8 9 8
3 3 3 3 3 1 2 3 1 0 0 1 1 3 7 9 8 9 9 9 9 9 8 8 10 10 8 7 7 8 5 6 9 10 9 9 10 9 8 9 9 8 8 7
3 2 3 3 1 2 4 4 4 3 1 2 4 5 7 9 11 11 10 9 9 9 8 8 10 11 10 9 9 8 7 9 11 11 10 10 10 10 10 9 8 8 7 8
1 2 3 2 1 2 3 4 5 5 5 5 5 6 8 11 11 11 10 9 9 9 8 9 11 11 10 10 10 10 9 10 13 12 11 10 10 10 11 11 9 8 7 6
1 2 3 3 3 3 0 2 4 6 6 6 8 8 8 10 12 12 11 9 10 11 10 10 11 12 11 11 11 10 9 10 12 11 10 9 9 8 9 10 11 15 12 15
Wind_Direction
235 169 228 232 222 224 256 275 277 277 278 234 179 200 208 193 168 159 166 172 178 188 179 167 164 163 159 158 161 165 163 162 159 158 160 157 164 169 167 170 164 165 162 160
275 249 237 234 245 251 260 269 274 280 285 187 180 219 215 176 174 168 165 171 171 171 166 165 162 162 165 166 165 166 169 167 167 168 164 162 160 166 163 164 164 171 165 162
216 242 238 236 251 256 265 253 253 259 320 33 99 359 325 327 115 142 152 164 169 172 173 171 168 170 167 170 171 172 171 171 170 162 150 144 135 132 147 158 170 175 169 167
242 247 254 252 252 245 262 260 255 265 27 328 85 212 285 270 344 145 152 157 174 177 172 172 171 171 174 175 171 169 172 173 170 162 161 163 168 170 178 168 170 171 170 166
242 234 231 242 248 242 240 257 256 240 112 41 11 96 285 329 287 228 194 169 170 172 172 172 172 172 173 168 167 168 169 173 172 172 173 170 171 174 166 159 165 172 171 166
256 270 245 238 250 246 243 304 18 46 70 27 288 160 277 264 238 250 209 171 168 165 163 162 161 156 160 164 165 168 170 176 177 178 178 176 175 172 169 174 174 175 172 173
281 277 260 245 253 274 221 93 29 358 11 264 271 210 248 261 238 200 196 181 173 161 158 158 156 160 164 169 173 176 179 181 182 183 183 182 181 177 180 180 178 174 173 179
233 274 257 224 203 210 203 144 158 192 217 261 318 251 269 270 227 157 155 151 150 157 163 168 169 170 172 175 178 180 184 183 181 182 183 181 181 182 186 182 179 181 183 185
208 253 273 258 215 172 178 182 173 147 160 126 291 298 309 332 38 69 114 132 152 162 168 173 173 170 171 177 182 184 184 183 183 182 179 181 183 184 184 183 183 182 182 183
184 250 287 295 348 182 170 160 102 119 152 196 278 271 252 235 217 187 161 156 169 156 160 164 167 166 167 170 177 181 185 187 183 178 180 184 182 184 183 179 181 183 184 181
171 191 290 354 72 200 89 97 110 125 147 151 197 258 232 209 192 180 184 174 163 154 158 163 166 164 163 164 167 173 178 178 179 176 173 175 177 179 180 184 184 182 181 176
169 151 228 265 283 140 132 146 132 141 199 156 160 256 265 195 178 164 159 151 139 144 150 149 143 137 139 150 162 166 170 169 170 166 164 171 172 173 178 184 181 176 176 176
136 124 127 342 346 13 66 89 124 131 120 143 156 252 300 117 132 141 132 130 126 122 124 128 133 143 150 149 151 154 160 160 156 153 158 160 162 165 173 178 174 171 170 172
112 101 144 177 210 223 74 58 97 103 123 186 202 220 245 172 153 134 127 129 130 132 139 142 141 149 154 154 148 151 154 157 156 155 157 159 163 163 168 170 168 169 169 171
84 94 111 133 127 105 81 47 73 120 181 184 217 210 229 196 163 152 148 141 141 149 154 151 143 136 146 151 149 156 154 154 155 152 157 164 160 158 161 162 163 164 167 174
64 99 74 34 33 45 25 1 11 41 128 147 122 37 284 115 106 111 135 143 145 158 162 158 149 145 154 159 155 153 152 153 149 151 157 156 155 157 161 162 160 156 157 160
67 94 83 356 357 46 356 328 61 58 20 135 151 195 115 95 88 96 113 128 134 144 145 156 159 164 165 163 157 153 152 139 132 137 140 138 145 148 155 161 157 162 162 150
118 100 110 81 49 193 243 349 82 80 53 50 84 110 113 119 105 85 87 113 120 125 129 136 144 151 156 149 144 140 137 134 133 132 139 137 135 137 131 131 139 150 146 139
129 125 110 111 125 282 317 2 37 87 45 35 85 95 105 116 89 61 50 88 116 121 126 136 138 139 139 141 143 133 136 136 132 134 137 144 142 134 130 130 128 123 117 113
73 96 112 118 138 218 274 324 340 100 75 12 79 113 128 98 97 97 22 77 88 98 106 111 111 104 103 117 128 129 131 129 135 145 147 145 141 136 133 130 119 109 113 115
49 58 109 141 172 226 311 318 3 111 213 307 109 131 123 100 144 140 97 82 79 82 93 97 94 96 96 101 114 121 124 132 142 134 124 116 117 121 121 117 115 114 113 105
131 124 145 139 163 231 338 21 67 209 280 348 59 105 106 112 111 106 95 87 81 76 80 91 92 84 76 81 101 106 116 127 115 107 102 98 97 103 106 106 105 107 109 102
84 159 162 152 175 218 30 82 66 80 211 237 137 124 123 123 121 111 100 95 87 81 79 84 91 83 68 62 81 94 87 93 97 93 89 86 83 77 83 96 101 97 98 100
10 41 96 94 81 40 38 43 29 27 69 112 126 127 124 120 123 115 107 100 93 83 79 82 85 83 70 59 66 76 81 90 95 93 90 87 85 79 71 73 81 90 93 98
315 48 92 112 144 46 27 25 28 43 68 93 101 114 121 117 115 113 108 103 101 93 82 80 84 82 73 66 65 66 75 90 94 92 91 89 86 86 79 72 64 75 70 95
311 154 156 192 186 155 228 16 60 75 78 93 107 104 105 113 113 110 105 99 98 96 92 87 82 80 74 70 66 59 65 83 93 91 88 91 94 93 93 92 76 58 69 72
Height
1477 1484 1489 1485 1483 1485 1485 1488 1488 1476 1463 1465 1469 1471 1469 1469 1470 1473 1476 1477 1479 1480 1483 1486 1489 1491 1493 1495 1498 1501 1504 1508 1511 1515 1519 1523 1527 1531 1534 1538 1541 1543 1546 1548
1482 1485 1476 1475 1476 1478 1481 1486 1483 1472 1462 1465 1471 1473 1469 1468 1469 1470 1472 1474 1476 1479 1482 1484 1486 1488 1490 1492 1495 1499 1501 1505 1508 1513 1517 1521 1525 1529 1533 1536 1539 1542 1545 1547
1483 1475 1469 1473 1475 1478 1478 1481 1477 1473 1465 1466 1472 1481 1476 1471 1469 1470 1471 1472 1475 1476 1479 1481 1484 1486 1489 1491 1494 1497 1499 1502 1506 1511 1515 1519 1524 1527 1530 1534 1537 1540 1543 1545
1475 1468 1468 1471 1471 1472 1480 1465 1464 1466 1475 1487 1480 1498 1483 1475 1472 1470 1470 1471 1474 1476 1478 1480 1482 1485 1487 1490 1492 1495 1498 1501 1503 1507 1511 1515 1519 1522 1526 1531 1535 1538 1541 1544
1471 1463 1465 1468 1464 1462 1466 1457 1460 1464 1475 1489 1487 1496 1491 1478 1477 1473 1471 1470 1472 1474 1476 1479 1481 1483 1486 1488 1491 1493 1496 1498 1501 1504 1509 1513 1517 1521 1525 1530 1533 1536 1539 1542
1463 1457 1458 1458 1453 1453 1454 1458 1465 1474 1486 1503 1494 1497 1497 1484 1476 1471 1469 1470 1471 1473 1475 1478 1480 1483 1485 1488 1490 1492 1493 1495 1498 1501 1505 1510 1514 1518 1522 1526 1530 1533 1537 1540
1467 1457 1451 1450 1455 1452 1455 1476 1499 1501 1511 1509 1492 1493 1492 1473 1466 1466 1468 1469 1471 1473 1475 1477 1479 1481 1484 1486 1488 1490 1492 1493 1496 1498 1502 1507 1511 1515 1519 1523 1527 1531 1534 1537
1476 1471 1449 1444 1449 1456 1457 1472 1499 1510 1513 1507 1493 1494 1482 1467 1462 1462 1464 1467 1471 1474 1475 1477 1478 1480 1482 1484 1486 1487 1489 1491 1493 1496 1500 1504 1509 1513 1517 1521 1525 1529 1532 1535
1470 1467 1443 1438 1437 1443 1455 1465 1468 1489 1497 1507 1501 1489 1476 1465 1463 1463 1464 1467 1470 1472 1474 1477 1478 1479 1481 1482 1484 1485 1487 1489 1491 1494 1498 1502 1506 1510 1514 1519 1523 1527 1530 1533
1455 1463 1447 1437 1435 1438 1443 1452 1473 1488 1504 1512 1504 1496 1489 1472 1469 1467 1467 1468 1470 1470 1474 1476 1478 1479 1480 1481 1483 1485 1486 1488 1490 1493 1496 1500 1504 1508 1512 1516 1520 1524 1527 1530
1445 1461 1454 1446 1448 1450 1450 1457 1468 1483 1489 1505 1511 1499 1467 1464 1463 1464 1466 1468 1469 1470 1472 1475 1477 1478 1479 1481 1482 1484 1485 1486 1489 1491 1494 1498 1501 1506 1510 1514 1518 1521 1524 1527
1440 1456 1465 1454 1443 1439 1446 1455 1466 1484 1488 1491 1499 1493 1460 1459 1460 1462 1465 1468 1470 1472 1473 1474 1476 1477 1479 1480 1481 1483 1484 1486 1488 1490 1493 1496 1499 1504 1507 1511 1514 1518 1521 1524
1437 1455 1471 1469 1462 1451 1451 1453 1459 1470 1482 1490 1496 1487 1461 1460 1461 1463 1466 1469 1471 1473 1474 1475 1476 1477 1478 1479 1481 1483 1484 1486 1488 1491 1493 1496 1498 1502 1505 1508 1512 1515 1518 1521
1431 1452 1465 1474 1469 1458 1457 1455 1456 1467 1484 1486 1481 1475 1467 1464 1463 1465 1468 1470 1471 1473 1474 1475 1476 1477 1478 1480 1482 1483 1485 1487 1489 1491 1493 1495 1498 1500 1504 1507 1509 1512 1515 1518
1433 1452 1452 1454 1450 1450 1453 1454 1455 1461 1467 1475 1472 1470 1465 1462 1462 1465 1466 1468 1471 1472 1474 1475 1476 1477 1479 1481 1482 1484 1486 1487 1489 1491 1493 1495 1497 1500 1502 1505 1507 1510 1512 1515
1440 1452 1454 1456 1451 1450 1454 1453 1453 1455 1458 1462 1465 1468 1461 1461 1463 1465 1467 1468 1469 1471 1472 1474 1475 1477 1479 1481 1482 1483 1485 1487 1489 1491 1492 1494 1496 1499 1501 1503 1506 1508 1510 1513
1448 1454 1464 1468 1458 1456 1466 1458 1456 1458 1458 1460 1467 1467 1462 1463 1465 1467 1468 1469 1470 1471 1472 1473 1474 1476 1478 1480 1481 1482 1484 1487 1489 1491 1492 1494 1496 1498 1500 1503 1505 1507 1509 1511
1448 1457 1468 1472 1469 1479 1470 1454 1454 1459 1462 1461 1462 1462 1462 1465 1467 1468 1469 1470 1471 1472 1472 1474 1475 1476 1478 1479 1481 1483 1485 1486 1488 1490 1492 1494 1496 1498 1500 1502 1504 1506 1508 1511
1443 1454 1468 1478 1479 1474 1464 1457 1458 1463 1469 1465 1465 1464 1465 1465 1466 1470 1470 1471 1471 1472 1473 1474 1475 1476 1477 1479 1481 1483 1485 1486 1488 1490 1492 1494 1496 1497 1499 1501 1503 1505 1508 1509
1445 1451 1465 1474 1478 1483 1470 1459 1455 1460 1473 1467 1465 1465 1465 1465 1471 1473 1471 1470 1471 1473 1473 1474 1475 1476 1478 1479 1481 1482 1484 1486 1488 1490 1493 1495 1496 1498 1499 1501 1503 1505 1508 1509
1458 1461 1467 1472 1476 1473 1466 1459 1456 1471 1474 1468 1466 1465 1465 1466 1469 1471 1471 1471 1472 1473 1473 1474 1475 1477 1478 1480 1482 1483 1484 1486 1488 1491 1493 1495 1496 1498 1500 1502 1504 1506 1508 1508
1462 1467 1469 1472 1478 1478 1465 1461 1466 1469 1466 1465 1465 1465 1465 1466 1468 1470 1470 1471 1472 1473 1473 1474 1476 1478 1479 1481 1482 1483 1485 1486 1489 1491 1493 1495 1497 1498 1500 1502 1504 1506 1507 1509
1462 1464 1466 1469 1474 1469 1466 1465 1466 1465 1465 1464 1464 1465 1465 1466 1468 1470 1471 1472 1474 1475 1475 1476 1477 1478 1480 1482 1482 1483 1486 1488 1489 1491 1493 1495 1497 1499 1501 1502 1504 1506 1507 1509
1462 1459 1463 1468 1468 1467 1466 1465 1464 1464 1463 1463 1463 1464 1465 1464 1466 1469 1472 1474 1475 1476 1478 1478 1479 1480 1481 1483 1485 1486 1487 1489 1490 1492 1494 1496 1498 1499 1501 1503 1505 1507 1508 1510
1462 1461 1464 1468 1468 1467 1466 1466 1464 1463 1462 1461 1463 1464 1465 1466 1469 1471 1473 1476 1477 1478 1481 1481 1481 1482 1484 1486 1487 1488 1490 1490 1491 1493 1495 1497 1499 1501 1503 1504 1506 1508 1510 1512
1462 1463 1465 1467 1466 1467 1467 1465 1464 1463 1462 1462 1463 1465 1467 1468 1471 1473 1475 1478 1479 1481 1483 1485 1485 1486 1487 1488 1489 1491 1492 1493 1493 1495 1497 1499 1501 1503 1505 1506 1508 1510 1512 1513